TimeMDT,TemperatureF,Dew PointF,Humidity,Sea Level PressureIn,VisibilityMPH,Wind Direction,Wind SpeedMPH,Gust SpeedMPH,PrecipitationIn,Events,Conditions,WindDirDegrees,DateUTC
12:15 AM,41.0,28.4,61,29.90,10.0,SW,5.8,-,N/A,,Clear,220,2012-10-17 06:15:00
12:35 AM,39.2,28.4,65,29.91,10.0,West,4.6,-,N/A,,Clear,280,2012-10-17 06:35:00
12:55 AM,39.2,26.6,61,29.91,10.0,West,5.8,-,N/A,,Clear,280,2012-10-17 06:55:00
1:15 AM,39.2,24.8,56,29.92,10.0,West,9.2,-,N/A,,Clear,280,2012-10-17 07:15:00
1:35 AM,41.0,23.0,49,29.93,10.0,WNW,13.8,-,N/A,,Clear,290,2012-10-17 07:35:00
1:55 AM,39.2,21.2,49,29.93,10.0,West,12.7,-,N/A,,Clear,260,2012-10-17 07:55:00
2:15 AM,39.2,21.2,49,29.93,10.0,West,11.5,-,N/A,,Clear,260,2012-10-17 08:15:00
2:35 AM,37.4,19.4,48,29.94,10.0,WSW,16.1,-,N/A,,Clear,250,2012-10-17 08:35:00
2:55 AM,37.4,19.4,48,29.94,10.0,WSW,17.3,23.0,N/A,,Clear,250,2012-10-17 08:55:00
3:15 AM,39.2,15.8,39,29.92,10.0,WNW,28.8,35.7,N/A,,Clear,290,2012-10-17 09:15:00
3:35 AM,39.2,15.8,39,29.93,10.0,West,20.7,31.1,N/A,,Clear,280,2012-10-17 09:35:00
3:55 AM,39.2,15.8,39,29.93,10.0,WNW,28.8,38.0,N/A,,Clear,290,2012-10-17 09:55:00
4:15 AM,37.4,15.8,41,29.93,10.0,WNW,35.7,43.7,N/A,,Clear,290,2012-10-17 10:15:00
4:35 AM,37.4,15.8,41,29.96,10.0,West,21.9,33.4,N/A,,Clear,280,2012-10-17 10:35:00
4:55 AM,37.4,15.8,41,29.96,10.0,West,24.2,34.5,N/A,,Clear,280,2012-10-17 10:55:00
5:15 AM,37.4,15.8,41,29.97,10.0,West,19.6,29.9,N/A,,Clear,260,2012-10-17 11:15:00
5:55 AM,35.6,15.8,44,30.00,10.0,West,15.0,25.3,N/A,,Clear,260,2012-10-17 11:55:00
6:15 AM,33.8,17.6,52,30.03,10.0,WSW,13.8,-,N/A,,Clear,250,2012-10-17 12:15:00
6:35 AM,33.8,17.6,52,30.03,10.0,West,13.8,-,N/A,,Clear,260,2012-10-17 12:35:00
6:55 AM,33.8,15.8,48,30.04,10.0,West,16.1,-,N/A,,Clear,260,2012-10-17 12:55:00
7:15 AM,33.8,15.8,48,30.04,10.0,WSW,15.0,-,N/A,,Clear,250,2012-10-17 13:15:00
7:35 AM,30.2,15.8,55,30.06,10.0,WSW,11.5,-,N/A,,Clear,250,2012-10-17 13:35:00
7:55 AM,30.2,15.8,55,30.06,10.0,WSW,8.1,-,N/A,,Clear,240,2012-10-17 13:55:00
8:15 AM,30.2,17.6,60,30.07,10.0,WSW,10.4,-,N/A,,Clear,250,2012-10-17 14:15:00
8:35 AM,33.8,15.8,48,30.07,10.0,WSW,10.4,-,N/A,,Clear,250,2012-10-17 14:35:00
8:55 AM,33.8,15.8,48,30.08,10.0,WSW,17.3,-,N/A,,Clear,240,2012-10-17 14:55:00
9:35 AM,35.6,15.8,44,30.10,10.0,WSW,17.3,21.9,N/A,,Clear,240,2012-10-17 15:35:00
9:55 AM,35.6,15.8,44,30.11,10.0,WSW,16.1,24.2,N/A,,Clear,250,2012-10-17 15:55:00
10:15 AM,37.4,15.8,41,30.10,10.0,WSW,20.7,27.6,N/A,,Clear,250,2012-10-17 16:15:00
10:55 AM,37.4,15.8,41,30.09,10.0,SW,18.4,23.0,N/A,,Scattered Clouds,230,2012-10-17 16:55:00
11:15 AM,39.2,15.8,39,30.09,10.0,West,17.3,25.3,N/A,,Scattered Clouds,260,2012-10-17 17:15:00
11:35 AM,39.2,12.2,33,30.09,10.0,WSW,20.7,26.5,N/A,,Clear,240,2012-10-17 17:35:00
11:55 AM,39.2,12.2,33,30.08,10.0,WSW,21.9,27.6,N/A,,Clear,250,2012-10-17 17:55:00
12:15 PM,41.0,14.0,33,30.08,10.0,WSW,24.2,29.9,N/A,,Clear,250,2012-10-17 18:15:00
12:35 PM,42.8,12.2,29,30.08,10.0,WSW,25.3,31.1,N/A,,Partly Cloudy,240,2012-10-17 18:35:00
12:55 PM,42.8,12.2,29,30.08,10.0,West,21.9,33.4,N/A,,Partly Cloudy,260,2012-10-17 18:55:00
1:15 PM,42.8,12.2,29,30.06,10.0,West,20.7,26.5,N/A,,Clear,270,2012-10-17 19:15:00
1:35 PM,44.6,10.4,25,30.05,10.0,WSW,19.6,28.8,N/A,,Clear,240,2012-10-17 19:35:00
1:55 PM,44.6,10.4,25,30.04,10.0,WSW,21.9,27.6,N/A,,Clear,250,2012-10-17 19:55:00
2:15 PM,46.4,10.4,23,30.04,10.0,West,15.0,25.3,N/A,,Clear,270,2012-10-17 20:15:00
2:35 PM,48.2,8.6,20,30.02,10.0,West,25.3,36.8,N/A,,Clear,260,2012-10-17 20:35:00
2:55 PM,48.2,8.6,20,30.02,10.0,West,26.5,35.7,N/A,,Clear,270,2012-10-17 20:55:00
3:15 PM,48.2,6.8,19,30.03,10.0,West,23.0,29.9,N/A,,Clear,270,2012-10-17 21:15:00
3:35 PM,50.0,8.6,19,30.02,10.0,West,19.6,31.1,N/A,,Clear,260,2012-10-17 21:35:00
3:55 PM,48.2,8.6,20,30.02,10.0,WSW,26.5,36.8,N/A,,Clear,250,2012-10-17 21:55:00
4:15 PM,48.2,8.6,20,30.02,10.0,WSW,25.3,36.8,N/A,,Clear,250,2012-10-17 22:15:00
4:35 PM,48.2,10.4,22,30.02,10.0,WSW,24.2,28.8,N/A,,Clear,250,2012-10-17 22:35:00
4:55 PM,48.2,8.6,20,30.03,10.0,WSW,21.9,31.1,N/A,,Clear,240,2012-10-17 22:55:00
5:15 PM,48.2,8.6,20,30.04,10.0,WSW,23.0,28.8,N/A,,Clear,240,2012-10-17 23:15:00
5:35 PM,48.2,8.6,20,30.03,10.0,WSW,16.1,26.5,N/A,,Clear,240,2012-10-17 23:35:00
5:55 PM,48.2,8.6,20,30.03,10.0,WSW,20.7,24.2,N/A,,Clear,250,2012-10-17 23:55:00
6:15 PM,46.4,10.4,23,30.04,10.0,West,12.7,17.3,N/A,,Clear,270,2012-10-18 00:15:00
6:35 PM,46.4,8.6,22,30.04,10.0,West,12.7,-,N/A,,Clear,260,2012-10-18 00:35:00
6:55 PM,44.6,8.6,23,30.05,10.0,West,10.4,-,N/A,,Clear,270,2012-10-18 00:55:00
7:15 PM,42.8,10.4,27,30.06,10.0,WSW,10.4,-,N/A,,Clear,240,2012-10-18 01:15:00
7:35 PM,39.2,12.2,33,30.08,10.0,West,9.2,-,N/A,,Clear,270,2012-10-18 01:35:00
7:55 PM,41.0,12.2,31,30.08,10.0,West,10.4,-,N/A,,Clear,260,2012-10-18 01:55:00
8:15 PM,39.2,12.2,33,30.10,10.0,West,10.4,-,N/A,,Clear,260,2012-10-18 02:15:00
8:35 PM,39.2,12.2,33,30.11,10.0,West,9.2,-,N/A,,Clear,260,2012-10-18 02:35:00
8:55 PM,39.2,12.2,33,30.12,10.0,WSW,10.4,-,N/A,,Clear,250,2012-10-18 02:55:00
9:15 PM,39.2,12.2,33,30.13,10.0,West,10.4,21.9,N/A,,Clear,260,2012-10-18 03:15:00
9:35 PM,39.2,12.2,33,30.14,10.0,West,20.7,25.3,N/A,,Clear,280,2012-10-18 03:35:00
9:55 PM,39.2,12.2,33,30.14,10.0,West,16.1,24.2,N/A,,Clear,280,2012-10-18 03:55:00
10:15 PM,39.2,12.2,33,30.15,10.0,West,15.0,-,N/A,,Clear,270,2012-10-18 04:15:00
10:35 PM,35.6,14.0,41,30.15,10.0,West,10.4,-,N/A,,Clear,260,2012-10-18 04:35:00
10:55 PM,37.4,12.2,36,30.16,10.0,West,15.0,19.6,N/A,,Clear,280,2012-10-18 04:55:00
11:15 PM,37.4,12.2,36,30.17,10.0,West,11.5,-,N/A,,Clear,270,2012-10-18 05:15:00
11:35 PM,37.4,12.2,36,30.17,10.0,West,6.9,-,N/A,,Clear,270,2012-10-18 05:35:00
11:55 PM,33.8,14.0,44,30.19,10.0,WSW,5.8,-,N/A,,Clear,240,2012-10-18 05:55:00